Home   Weather   Niamey   Past weeks

Flag for Niger Past Weather in Niamey, Niger — Yesterday and Last 2 Weeks

Now
73 °F

Clear.


Feels Like: 76 °F
Forecast: 69 / 96 °F
Wind: 6 mph from Northeast

Location: Niamey-Aero

Current Time: Dec 8, 2016 at 9:09:09 am

Latest Report: Dec 8, 2016 at 8:00 am


Visibility: 4 mi

Pressure: 29.95 "Hg

Humidity: 22%

Dew Point: 32 °F

Location of NiameyLocation

Past Weather in Niamey — Graph

°F

Niamey Temperature Yesterday

Maximum temperature yesterday: 95 °F (at 2:00 pm)
Minimum temperature yesterday: 70 °F (at 5:00 am)
Average temperature yesterday: 82 °F

High & Low Weather Summary for the Past Weeks

 TemperatureHumidityPressure
High104 °F (Nov 24, 4:00 pm)53% (Nov 28, 7:00 am)30.01 "Hg (Nov 28, 7:00 am)
Low70 °F (Dec 4, 7:00 am)7% (Nov 23, 2:00 pm)29.74 "Hg (Nov 26, 3:00 pm)
Average86 °F19%29.88 "Hg
* Reported Nov 23 8:00 am — Dec 8 8:00 am, Niamey, Weather by CustomWeather, © 2016

Note: Actual official high and low records may vary slightly from our data, if they occured in-between our weather recording intervals... More about our weather records

Advertising

Niamey Weather History for the Previous 24 Hours

Scroll right to see more
 ConditionsComfort  
Time TempWeatherWind HumidityBarometerVisibility
8:00 am
Thu, Dec 8
73 °FClear.6 mph22%29.95 "Hg4 mi
7:00 am70 °FClear.6 mph27%29.92 "Hg5 mi
6:00 am72 °FClear.6 mph25%29.92 "Hg10 mi
5:00 am72 °FClear.6 mph25%29.92 "Hg10 mi
4:00 am73 °FClear.6 mph23%29.89 "Hg10 mi
3:00 am73 °FClear.3 mph25%29.89 "Hg10 mi
2:00 am75 °FClear.3 mph22%29.92 "Hg10 mi
1:00 am77 °FClear.2 mph19%29.92 "Hg10 mi
12:00 am77 °FClear.5 mph19%29.92 "Hg10 mi
11:00 pm
Wed, Dec 7
79 °FClear.3 mph20%29.92 "Hg10 mi
10:00 pm81 °FClear.5 mph17%29.92 "Hg10 mi
9:00 pm82 °FClear.5 mph16%29.92 "Hg10 mi
8:00 pm84 °FClear.3 mph13%29.89 "Hg5 mi
7:00 pm86 °FClear.5 mph12%29.86 "Hg5 mi
6:00 pm93 °FSunny.7 mph8%29.86 "Hg10 mi
5:00 pm93 °FSunny.7 mph8%29.83 "Hg10 mi
4:00 pm95 °FPassing clouds.6 mph8%29.83 "HgN/A
3:00 pm95 °FPassing clouds.8 mph8%29.86 "HgN/A
2:00 pm95 °FSunny.13 mph8%29.86 "Hg10 mi
1:00 pm93 °FSunny.12 mph8%29.89 "Hg10 mi
12:00 pm91 °FSunny.14 mph9%29.92 "Hg10 mi
11:00 am90 °FPassing clouds.15 mph10%29.95 "HgN/A
10:00 am86 °FSunny.13 mph13%29.95 "Hg10 mi
9:00 am79 °FClear.8 mph18%29.95 "Hg5 mi
Weather by CustomWeather, © 2016

See weather overviewHow to use our weather pages